Location: Sevilla
(37.3933°N, 5.9839°W)
Time: 01:13:59
(UTC+02:00)

Vanguard 2 Rocket - All Passes

Search period start: 16 June 2024 00:00
Search period end: 26 June 2024 00:00
Orbit: 555 x 3304 km, 32.9° (Epoch: 15 June)

Date Brightness Start Highest point End Pass type
(mag) Time Alt. Az. Time Alt. Az. Time Alt. Az.
16 Jun - 02:12:29 10° SE 02:15:25 10° SE 02:18:22 10° ESE visible
16 Jun - 04:14:09 10° SSW 04:30:58 35° SE 04:45:35 10° E visible
16 Jun - 06:28:15 10° SW 06:47:39 61° SSE 07:01:05 10° E visible
16 Jun - 08:46:29 10° W 09:04:06 73° S 09:14:19 10° E daylight
16 Jun - 11:05:45 10° W 11:18:44 54° SSW 11:26:04 10° SE daylight
16 Jun - 13:25:28 10° W 13:30:39 17° SW 13:34:37 10° S daylight
17 Jun - 03:12:12 10° S 03:26:42 26° SE 03:40:33 10° E visible
17 Jun - 05:23:53 10° SW 05:43:03 53° SSE 05:58:00 10° E visible
17 Jun - 07:40:51 10° WSW 08:00:00 72° S 08:12:01 10° E daylight
17 Jun - 10:00:06 10° W 10:15:43 66° SSW 10:24:29 10° ESE daylight
17 Jun - 12:19:26 10° W 12:28:48 30° SW 12:34:46 10° SSE daylight
18 Jun - 02:12:02 10° SSE 02:22:41 18° SE 02:33:33 10° E visible
18 Jun - 04:20:20 10° SSW 04:38:25 44° SSE 04:54:17 10° E visible
18 Jun - 06:35:36 10° WSW 06:55:30 68° SSE 07:09:22 10° E visible
18 Jun - 08:54:18 10° W 09:12:07 73° S 09:22:33 10° ESE daylight
18 Jun - 11:13:44 10° W 11:26:30 45° SSW 11:33:57 10° SE daylight
18 Jun - 13:36:27 10° WSW 13:37:58 11° SW 13:39:22 10° SW daylight
19 Jun - 03:17:44 10° SSW 03:33:56 35° SE 03:49:45 10° E visible
19 Jun - 05:30:57 10° SW 05:50:42 62° SSE 06:06:16 10° E visible
19 Jun - 07:48:34 10° W 08:07:59 75° S 08:20:16 10° E daylight
19 Jun - 10:07:58 10° W 10:23:36 59° SSW 10:32:34 10° SE daylight
19 Jun - 12:28:04 10° W 12:36:12 22° SW 12:41:50 10° S daylight
20 Jun - 02:16:19 10° S 02:29:48 25° SE 02:44:00 10° E visible
20 Jun - 04:27:03 10° SW 04:45:50 53° SSE 05:02:39 10° E visible
20 Jun - 06:43:10 10° WSW 07:03:20 74° S 07:17:34 10° E daylight
20 Jun - 09:02:08 10° W 09:20:03 69° SSW 09:30:42 10° ESE daylight
20 Jun - 11:21:51 10° W 11:34:01 36° SW 11:41:31 10° SSE daylight
21 Jun - 01:16:56 10° SSE 01:26:04 16° SE 01:35:57 10° E visible
21 Jun - 03:24:01 10° SSW 03:41:09 44° SSE 03:58:22 10° E visible
21 Jun - 05:38:19 10° WSW 05:58:24 69° SSE 06:14:27 10° E visible
21 Jun - 07:56:21 10° W 08:15:54 75° S 08:28:26 10° ESE daylight
21 Jun - 10:15:51 10° W 10:31:15 50° SSW 10:40:23 10° SE daylight
21 Jun - 12:37:29 10° W 12:43:23 15° SW 12:47:58 10° SSW daylight
22 Jun - 02:21:56 10° SSW 02:36:49 34° SE 02:53:09 10° E visible
22 Jun - 04:34:10 10° SW 04:53:20 62° SSE 05:10:49 10° E visible
22 Jun - 06:50:53 10° W 07:11:12 76° S 07:25:43 10° E daylight
22 Jun - 09:09:56 10° W 09:27:50 63° SSW 09:38:42 10° ESE daylight
22 Jun - 11:30:12 10° W 11:41:18 28° SW 11:48:39 10° SSE daylight
23 Jun - 01:21:06 10° S 01:32:59 23° SE 01:46:37 10° E visible
23 Jun - 03:30:48 10° SW 03:48:24 53° SSE 04:06:36 10° E visible
23 Jun - 05:45:54 10° WSW 06:06:07 74° S 06:22:33 10° E visible
23 Jun - 08:04:09 10° W 08:23:44 71° SSW 08:36:30 10° ESE daylight
23 Jun - 10:23:50 10° W 10:38:41 41° SW 10:47:55 10° SSE daylight
24 Jun - 00:22:47 10° SSE 00:29:38 14° SE 00:37:15 10° ESE visible
24 Jun - 02:28:17 10° SSW 02:43:51 42° SE 03:01:42 10° E visible
24 Jun - 04:41:35 10° WSW 05:00:52 69° SSE 05:18:53 10° E visible
24 Jun - 06:58:40 10° W 07:19:02 76° S 07:33:48 10° ESE daylight
24 Jun - 09:17:46 10° W 09:35:24 55° SSW 09:46:28 10° SE daylight
24 Jun - 11:39:06 10° W 11:48:21 20° SW 11:55:04 10° S daylight
25 Jun - 01:26:44 10° SSW 01:39:51 31° SE 01:55:49 10° E visible
25 Jun - 03:37:59 10° SW 03:55:45 61° SSE 04:14:40 10° E visible
25 Jun - 05:53:39 10° WSW 06:13:52 77° S 06:30:36 10° E visible
25 Jun - 08:11:57 10° W 08:31:25 66° SSW 08:44:24 10° ESE daylight
25 Jun - 10:32:00 10° W 10:45:52 33° SW 10:55:03 10° SSE daylight
